Location: Hohe Wand Kleine Kanzel
(47.8330°N, 16.0170°E)
Time: 14:15:43
(UTC+02:00)

ESTCUBE 1 - Visible Passes

Search period start: 21 September 2021 00:00
Search period end: 01 October 2021 00:00
Orbit: 647 x 659 km, 97.9° (Epoch: 21 September)

Date Brightness Start Highest point End Pass type
(mag) Time Alt. Az. Time Alt. Az. Time Alt. Az.
21 Sep ? 22:27:07 16° NNE 22:27:07 16° NNE 22:28:14 10° N visible
22 Sep ? 00:04:58 10° NNW 00:04:58 10° NNW 00:05:00 10° NNW visible
22 Sep ? 22:54:59 16° N 22:54:59 16° N 22:55:57 10° N visible
23 Sep ? 21:44:59 11° NNE 21:44:59 11° NNE 21:45:15 10° NNE visible
23 Sep ? 23:22:50 14° NNW 23:22:50 14° NNW 23:23:28 10° NNW visible
24 Sep ? 22:12:51 13° NNE 22:12:51 13° NNE 22:13:32 10° N visible
24 Sep ? 23:50:42 10° NNW 23:50:42 10° NNW 23:50:44 10° NNW visible
25 Sep ? 22:40:43 14° N 22:40:43 14° N 22:41:24 10° N visible
26 Sep ? 23:08:34 13° N 23:08:34 13° N 23:09:00 10° N visible
27 Sep ? 21:58:35 11° NNE 21:58:35 11° NNE 21:58:43 10° NNE visible
28 Sep ? 22:26:26 12° N 22:26:26 12° N 22:26:45 10° N visible
29 Sep ? 22:54:18 11° N 22:54:18 11° N 22:54:29 10° N visible
